SAS105 LFPG-EDDH

Flight info

Callsign SAS105
Flight time 1h 2m
Altitude 36000
Route NURMO DCT CMB DCT VEKIN DCT ADUTO N873 VICOT/N0501F370 DCT PABCO M105 RIBSO
Aircraft B77W/H-SDE1E2E3FGHIJ2J3J4J5M1RWXY/LB1D1

Departure

Time 2026-05-08 16:04
Airport Charles de Gaulle International Airport (LFPG)

Arrival

Time 2026-05-08 17:06
Airport Hamburg Helmut Schmidt Airport (EDDH)
Time Latitude Longitude Altitude Speed Heading
2026-05-08 15:47 49.01568 2.54572 359 ft 0 kts 239°
2026-05-08 15:51 49.01576 2.54590 365 ft 3 kts 238°
2026-05-08 15:52 49.01587 2.54618 366 ft 3 kts 238°
2026-05-08 15:52 49.01598 2.54645 368 ft 3 kts 238°
2026-05-08 15:52 49.01609 2.54674 368 ft 3 kts 266°
2026-05-08 15:52 49.01608 2.54693 366 ft 0 kts 331°
2026-05-08 15:54 49.01608 2.54692 366 ft 1 kts 330°
2026-05-08 15:55 49.01618 2.54684 366 ft 3 kts 330°
2026-05-08 15:55 49.01658 2.54643 368 ft 4 kts 323°
2026-05-08 15:55 49.01704 2.54583 368 ft 12 kts 316°
2026-05-08 15:56 49.01756 2.54485 368 ft 12 kts 302°
2026-05-08 15:56 49.01791 2.54373 365 ft 12 kts 292°
2026-05-08 15:56 49.01810 2.54252 364 ft 12 kts 279°
2026-05-08 15:56 49.01810 2.54127 364 ft 12 kts 266°
2026-05-08 15:57 49.01806 2.54023 363 ft 12 kts 266°
2026-05-08 15:57 49.01797 2.53876 361 ft 22 kts 264°
2026-05-08 15:57 49.01784 2.53624 361 ft 24 kts 266°
2026-05-08 15:57 49.01768 2.53369 360 ft 24 kts 264°
2026-05-08 15:58 49.01755 2.53113 365 ft 24 kts 265°
2026-05-08 15:58 49.01741 2.52858 366 ft 24 kts 265°
2026-05-08 15:58 49.01726 2.52602 363 ft 24 kts 265°
2026-05-08 15:58 49.01716 2.52346 368 ft 24 kts 267°
2026-05-08 15:59 49.01706 2.52090 363 ft 24 kts 265°
2026-05-08 15:59 49.01689 2.51835 363 ft 24 kts 264°
2026-05-08 15:59 49.01674 2.51579 365 ft 24 kts 263°
2026-05-08 15:59 49.01664 2.51324 359 ft 24 kts 286°
2026-05-08 16:00 49.01779 2.51264 359 ft 18 kts 359°
2026-05-08 16:00 49.01902 2.51257 365 ft 18 kts 358°
2026-05-08 16:00 49.01942 2.51254 364 ft 0 kts 358°
2026-05-08 16:02 49.01945 2.51254 364 ft 2 kts 359°
2026-05-08 16:02 49.01972 2.51264 365 ft 6 kts 22°
2026-05-08 16:02 49.02013 2.51311 367 ft 8 kts 44°
2026-05-08 16:03 49.02051 2.51367 366 ft 8 kts 45°
2026-05-08 16:03 49.02078 2.51489 366 ft 23 kts 86°
2026-05-08 16:03 49.02098 2.51881 360 ft 54 kts 85°
2026-05-08 16:03 49.02151 2.52822 366 ft 124 kts 85°
2026-05-08 16:04 49.02243 2.54451 377 ft 178 kts 82°
2026-05-08 16:04 49.02361 2.56377 903 ft 183 kts 84°
2026-05-08 16:04 49.02454 2.58314 1669 ft 185 kts 85°
2026-05-08 16:04 49.02547 2.60286 2271 ft 187 kts 84°
2026-05-08 16:05 49.02651 2.62295 2869 ft 192 kts 84°
2026-05-08 16:05 49.02762 2.64315 3497 ft 194 kts 85°
2026-05-08 16:05 49.02879 2.66456 3815 ft 215 kts 85°
2026-05-08 16:05 49.03002 2.68860 4019 ft 241 kts 85°
2026-05-08 16:06 49.03140 2.71524 4423 ft 258 kts 84°
2026-05-08 16:06 49.03648 2.74166 4949 ft 267 kts 56°
2026-05-08 16:06 49.04118 2.75048 5227 ft 268 kts 43°
2026-05-08 16:06 49.05934 2.76468 6136 ft 270 kts 11°
2026-05-08 16:07 49.07815 2.76662 6815 ft 275 kts
2026-05-08 16:07 49.09090 2.76660 7268 ft 279 kts 359°
2026-05-08 16:07 49.11045 2.76622 8010 ft 282 kts 358°
2026-05-08 16:07 49.13021 2.76570 8786 ft 285 kts 358°
2026-05-08 16:08 49.15021 2.76518 9542 ft 290 kts 358°
2026-05-08 16:08 49.17048 2.76469 10224 ft 295 kts 357°
2026-05-08 16:08 49.19160 2.76423 10601 ft 314 kts 358°
2026-05-08 16:08 49.21429 2.76375 10787 ft 339 kts 358°
2026-05-08 16:09 49.23871 2.76329 10991 ft 364 kts 358°
2026-05-08 16:09 49.26462 2.76287 11502 ft 378 kts 358°
2026-05-08 16:09 49.29122 2.76248 12302 ft 385 kts 358°
2026-05-08 16:09 49.31816 2.76212 13282 ft 389 kts 358°
2026-05-08 16:10 49.34539 2.76175 14202 ft 394 kts 358°
2026-05-08 16:10 49.37301 2.76138 15051 ft 399 kts 358°
2026-05-08 16:10 49.40092 2.76100 15917 ft 403 kts 358°
2026-05-08 16:10 49.42871 2.76062 16765 ft 407 kts 358°
2026-05-08 16:11 49.45727 2.76021 17612 ft 412 kts 358°
2026-05-08 16:11 49.48610 2.75980 18436 ft 417 kts 358°
2026-05-08 16:11 49.51527 2.75938 19175 ft 421 kts 358°
2026-05-08 16:11 49.54472 2.75898 19946 ft 424 kts 358°
2026-05-08 16:12 49.57433 2.75856 20708 ft 427 kts 358°
2026-05-08 16:12 49.60420 2.75814 21456 ft 431 kts 358°
2026-05-08 16:12 49.63437 2.75772 22165 ft 435 kts 358°
2026-05-08 16:12 49.66467 2.75729 22877 ft 438 kts 358°
2026-05-08 16:13 49.69533 2.75685 23584 ft 442 kts 358°
2026-05-08 16:13 49.72618 2.75641 24166 ft 445 kts 359°
2026-05-08 16:13 49.75716 2.75597 24782 ft 446 kts 358°
2026-05-08 16:13 49.78823 2.75554 25478 ft 445 kts 358°
2026-05-08 16:14 49.81902 2.75822 26034 ft 447 kts
2026-05-08 16:14 49.84857 2.77411 26505 ft 456 kts 27°
2026-05-08 16:14 49.87503 2.80105 26950 ft 457 kts 31°
2026-05-08 16:14 49.90164 2.82856 27387 ft 461 kts 30°
2026-05-08 16:15 49.92858 2.85558 27923 ft 462 kts 29°
2026-05-08 16:15 49.95569 2.88236 28518 ft 463 kts 29°
2026-05-08 16:15 49.98291 2.90911 29033 ft 464 kts 28°
2026-05-08 16:15 50.01028 2.93601 29489 ft 466 kts 28°
2026-05-08 16:16 50.03775 2.96307 29900 ft 468 kts 28°
2026-05-08 16:16 50.06530 2.99029 30255 ft 470 kts 28°
2026-05-08 16:16 50.09262 3.01733 30528 ft 473 kts 28°
2026-05-08 16:16 50.12048 3.04496 30782 ft 476 kts 28°
2026-05-08 16:17 50.14845 3.07274 31009 ft 478 kts 28°
2026-05-08 16:17 50.17658 3.10072 31324 ft 479 kts 29°
2026-05-08 16:17 50.20461 3.12864 31679 ft 478 kts 29°
2026-05-08 16:17 50.23307 3.15534 32038 ft 476 kts 25°
2026-05-08 16:18 50.26276 3.17768 32357 ft 473 kts 20°
2026-05-08 16:18 50.29287 3.19815 32693 ft 472 kts 20°
2026-05-08 16:18 50.32305 3.21860 33016 ft 472 kts 20°
2026-05-08 16:18 50.35317 3.23930 33210 ft 476 kts 21°
2026-05-08 16:19 50.41425 3.28222 33710 ft 479 kts 22°
2026-05-08 16:19 50.44396 3.30518 34279 ft 474 kts 24°
2026-05-08 16:19 50.47230 3.32803 34557 ft 474 kts 24°
2026-05-08 16:20 50.50180 3.35160 34745 ft 477 kts 24°
2026-05-08 16:20 50.53169 3.37424 34927 ft 477 kts 22°
2026-05-08 16:20 50.56204 3.39546 35173 ft 477 kts 21°
2026-05-08 16:20 50.59256 3.41613 35423 ft 478 kts 20°
2026-05-08 16:21 50.62315 3.43672 35668 ft 478 kts 20°
2026-05-08 16:21 50.65372 3.45742 35906 ft 479 kts 21°
2026-05-08 16:21 50.71522 3.49958 36054 ft 484 kts 21°
2026-05-08 16:22 50.77687 3.54229 36065 ft 481 kts 21°
2026-05-08 16:22 50.83788 3.58469 36080 ft 478 kts 21°
2026-05-08 16:23 50.89863 3.62696 36080 ft 478 kts 21°
2026-05-08 16:23 50.95999 3.67035 36085 ft 486 kts 22°
2026-05-08 16:24 51.02205 3.71529 36090 ft 493 kts 22°
2026-05-08 16:24 51.08479 3.76081 36094 ft 498 kts 22°
2026-05-08 16:25 51.14817 3.80680 36097 ft 503 kts 22°
2026-05-08 16:25 51.21206 3.85324 36086 ft 507 kts 22°
2026-05-08 16:26 51.27634 3.90011 36094 ft 509 kts 22°
2026-05-08 16:26 51.34050 3.94702 36061 ft 504 kts 22°
2026-05-08 16:27 51.40359 3.99328 36082 ft 500 kts 22°
2026-05-08 16:27 51.46540 4.04450 36127 ft 503 kts 32°
2026-05-08 16:28 51.49368 4.07764 36343 ft 503 kts 37°
2026-05-08 16:28 51.51967 4.11502 36641 ft 502 kts 44°
2026-05-08 16:28 51.54342 4.15601 37008 ft 499 kts 46°
2026-05-08 16:28 51.56642 4.19771 37081 ft 502 kts 47°
2026-05-08 16:29 51.61249 4.28281 37080 ft 507 kts 47°
2026-05-08 16:29 51.65920 4.36827 37088 ft 510 kts 46°
2026-05-08 16:30 51.70659 4.45404 37105 ft 514 kts 46°
2026-05-08 16:30 51.75426 4.54025 37107 ft 516 kts 46°
2026-05-08 16:31 51.80211 4.62710 37104 ft 518 kts 46°
2026-05-08 16:31 51.84989 4.71422 37095 ft 518 kts 46°
2026-05-08 16:32 51.89763 4.80159 37099 ft 518 kts 46°
2026-05-08 16:32 51.94522 4.88899 37108 ft 517 kts 47°
2026-05-08 16:33 51.99278 4.97663 37099 ft 517 kts 47°
2026-05-08 16:33 52.04017 5.06425 37101 ft 517 kts 47°
2026-05-08 16:34 52.08753 5.15212 37103 ft 516 kts 47°
2026-05-08 16:34 52.13471 5.23997 37104 ft 516 kts 47°
2026-05-08 16:35 52.18189 5.32814 37112 ft 516 kts 47°
2026-05-08 16:35 52.22901 5.41650 37103 ft 516 kts 47°
2026-05-08 16:36 52.27603 5.50497 37100 ft 516 kts 47°
2026-05-08 16:36 52.32308 5.59382 37106 ft 517 kts 47°
2026-05-08 16:37 52.37009 5.68291 37109 ft 517 kts 47°
2026-05-08 16:37 52.41707 5.77227 37114 ft 518 kts 47°
2026-05-08 16:38 52.46403 5.86190 37112 ft 519 kts 47°
2026-05-08 16:38 52.51099 5.95185 37111 ft 519 kts 47°
2026-05-08 16:39 52.55786 6.04197 37106 ft 519 kts 48°
2026-05-08 16:39 52.60475 6.13243 37116 ft 520 kts 48°
2026-05-08 16:40 52.65161 6.22316 37116 ft 520 kts 48°
2026-05-08 16:40 52.69845 6.31420 37120 ft 521 kts 48°
2026-05-08 16:41 52.74524 6.40546 37126 ft 521 kts 48°
2026-05-08 16:42 52.81531 6.54277 37131 ft 521 kts 48°
2026-05-08 16:42 52.86199 6.63466 37130 ft 522 kts 48°
2026-05-08 16:43 52.90867 6.72689 37130 ft 522 kts 48°
2026-05-08 16:43 52.95526 6.81928 37133 ft 522 kts 49°
2026-05-08 16:44 53.00183 6.91197 37134 ft 522 kts 49°
2026-05-08 16:44 53.04802 7.00426 37144 ft 522 kts 49°
2026-05-08 16:45 53.09422 7.09689 37066 ft 512 kts 49°
2026-05-08 16:45 53.11550 7.14413 36485 ft 509 kts 56°
2026-05-08 16:45 53.13341 7.19489 35782 ft 508 kts 61°
2026-05-08 16:45 53.14859 7.24811 34994 ft 509 kts 66°
2026-05-08 16:46 53.16032 7.30376 34233 ft 509 kts 72°
2026-05-08 16:46 53.17063 7.36015 33322 ft 508 kts 72°
2026-05-08 16:46 53.18113 7.41642 32385 ft 508 kts 71°
2026-05-08 16:46 53.19199 7.47258 31413 ft 509 kts 71°
2026-05-08 16:47 53.20299 7.52876 30467 ft 509 kts 71°
2026-05-08 16:47 53.21349 7.58266 29478 ft 509 kts 71°
2026-05-08 16:47 53.22436 7.63884 28434 ft 508 kts 71°
2026-05-08 16:47 53.23518 7.69486 27438 ft 506 kts 71°
2026-05-08 16:48 53.24596 7.75078 26454 ft 505 kts 71°
2026-05-08 16:48 53.25665 7.80639 25510 ft 503 kts 71°
2026-05-08 16:48 53.26729 7.86185 24620 ft 500 kts 71°
2026-05-08 16:48 53.27784 7.91703 23878 ft 496 kts 71°
2026-05-08 16:49 53.28820 7.97138 23293 ft 486 kts 71°
2026-05-08 16:49 53.29833 8.02469 22694 ft 477 kts 72°
2026-05-08 16:49 53.30827 8.07709 22124 ft 469 kts 72°
2026-05-08 16:49 53.31803 8.12863 21567 ft 461 kts 72°
2026-05-08 16:50 53.32779 8.17932 21043 ft 454 kts 70°
2026-05-08 16:50 53.33871 8.22849 20527 ft 447 kts 68°
2026-05-08 16:50 53.34994 8.27653 20029 ft 440 kts 68°
2026-05-08 16:50 53.36108 8.32385 19550 ft 434 kts 68°
2026-05-08 16:51 53.36834 8.35489 19246 ft 431 kts 68°
2026-05-08 16:51 53.37911 8.40140 18782 ft 425 kts 68°
2026-05-08 16:51 53.38964 8.44732 18318 ft 420 kts 68°
2026-05-08 16:51 53.40002 8.49279 17819 ft 415 kts 68°
2026-05-08 16:52 53.41096 8.53714 17308 ft 409 kts 65°
2026-05-08 16:52 53.42256 8.58046 16835 ft 405 kts 65°
2026-05-08 16:52 53.43423 8.62318 16383 ft 401 kts 64°
2026-05-08 16:52 53.44579 8.66553 15884 ft 399 kts 65°
2026-05-08 16:53 53.46858 8.74993 14840 ft 394 kts 65°
2026-05-08 16:53 53.47980 8.79186 14335 ft 393 kts 65°
2026-05-08 16:53 53.49091 8.83351 13818 ft 390 kts 65°
2026-05-08 16:54 53.50194 8.87494 13268 ft 387 kts 65°
2026-05-08 16:54 53.51289 8.91612 12724 ft 384 kts 65°
2026-05-08 16:54 53.52373 8.95694 12198 ft 379 kts 65°
2026-05-08 16:54 53.53661 8.99521 11649 ft 375 kts 53°
2026-05-08 16:55 53.55370 9.02806 11123 ft 373 kts 43°
2026-05-08 16:55 53.57377 9.05534 10606 ft 370 kts 34°
2026-05-08 16:55 53.59477 9.07980 10287 ft 362 kts 34°
2026-05-08 16:55 53.61530 9.10375 10166 ft 361 kts 34°
2026-05-08 16:56 53.63517 9.12929 10142 ft 359 kts 44°
2026-05-08 16:56 53.65167 9.16075 10163 ft 354 kts 52°
2026-05-08 16:56 53.66626 9.19305 10133 ft 337 kts 54°
2026-05-08 16:56 53.67826 9.22570 10147 ft 320 kts 62°
2026-05-08 16:57 53.68822 9.25838 10143 ft 306 kts 63°
2026-05-08 16:57 53.69745 9.28977 10136 ft 291 kts 64°
2026-05-08 16:57 53.70633 9.32014 10146 ft 288 kts 64°
2026-05-08 16:57 53.71512 9.35038 10163 ft 287 kts 64°
2026-05-08 16:58 53.72391 9.38068 10163 ft 287 kts 64°
2026-05-08 16:58 53.73268 9.41097 10105 ft 286 kts 64°
2026-05-08 16:58 53.74139 9.44111 9847 ft 284 kts 64°
2026-05-08 16:58 53.75004 9.47105 9520 ft 283 kts 64°
2026-05-08 16:59 53.75864 9.50083 9162 ft 282 kts 64°
2026-05-08 16:59 53.76719 9.53049 8830 ft 276 kts 64°
2026-05-08 16:59 53.77544 9.55909 8280 ft 273 kts 64°
2026-05-08 16:59 53.78374 9.58791 7664 ft 273 kts 64°
2026-05-08 17:00 53.79201 9.61662 7145 ft 269 kts 65°
2026-05-08 17:00 53.80009 9.64470 6583 ft 263 kts 65°
2026-05-08 17:00 53.80794 9.67193 6115 ft 252 kts 65°
2026-05-08 17:00 53.81540 9.69789 5670 ft 242 kts 66°
2026-05-08 17:01 53.82268 9.72318 5098 ft 238 kts 66°
2026-05-08 17:01 53.82839 9.74928 4415 ft 235 kts 85°
2026-05-08 17:01 53.82661 9.77601 3996 ft 225 kts 105°
2026-05-08 17:01 53.82261 9.80138 3805 ft 219 kts 104°
2026-05-08 17:02 53.81701 9.82464 3557 ft 209 kts 128°
2026-05-08 17:02 53.80584 9.83981 3234 ft 206 kts 144°
2026-05-08 17:02 53.79385 9.85291 3012 ft 204 kts 146°
2026-05-08 17:02 53.78156 9.86468 2895 ft 203 kts 148°
2026-05-08 17:03 53.76934 9.87544 2645 ft 191 kts 150°
2026-05-08 17:03 53.75795 9.88533 2379 ft 180 kts 150°
2026-05-08 17:03 53.74655 9.89527 2149 ft 186 kts 150°
2026-05-08 17:03 53.73520 9.90512 1881 ft 178 kts 150°
2026-05-08 17:04 53.72458 9.91431 1653 ft 164 kts 149°
2026-05-08 17:04 53.71470 9.92289 1415 ft 157 kts 149°
2026-05-08 17:04 53.70500 9.93136 1221 ft 157 kts 148°
2026-05-08 17:04 53.69517 9.93990 1011 ft 158 kts 148°
2026-05-08 17:05 53.68523 9.94854 800 ft 164 kts 148°
2026-05-08 17:05 53.67487 9.95751 567 ft 170 kts 149°
2026-05-08 17:05 53.66434 9.96652 318 ft 168 kts 147°
2026-05-08 17:05 53.65401 9.97548 110 ft 166 kts 147°
2026-05-08 17:06 53.64459 9.98379 55 ft 130 kts 153°
2026-05-08 17:06 53.63814 9.98930 50 ft 77 kts 153°
2026-05-08 17:06 53.63402 9.99292 47 ft 48 kts 151°
2026-05-08 17:06 53.63284 9.99595 50 ft 30 kts 101°
2026-05-08 17:07 53.63179 9.99798 47 ft 23 kts 154°
2026-05-08 17:07 53.63037 9.99921 47 ft 22 kts 152°
2026-05-08 17:07 53.62949 10.00018 47 ft 5 kts 118°
2026-05-08 17:07 53.62952 10.00073 48 ft 5 kts 75°
2026-05-08 17:08 53.62974 10.00118 48 ft 5 kts 36°
2026-05-08 17:08 53.62985 10.00172 46 ft 6 kts 111°
2026-05-08 17:08 53.62964 10.00232 52 ft 6 kts 122°
2026-05-08 17:08 53.62949 10.00272 47 ft 2 kts 122°
2026-05-08 17:09 53.62948 10.00273 47 ft 0 kts 122°